,,,PA_Meas_PMT16A,,PR_Meas_QMR101_102,,RH_Meas_QMH101,,SR_Meas_QMS101,,TA_Meas_QMH101,,GenWind,,GenWind,
date,time,status,PA,status,PR,status,RH,status,SR,status,TA,status,DirAvg,status,SpdAvg,
2010-01-04, 00:00:05,VALID,1000.01,VALID,0,VALID,91.2121,VALID,0,VALID,24.111,VALID,129,VALID,0,
2010-01-04, 00:01:05,VALID,1000.03,VALID,0,VALID,91.1358,VALID,0,VALID,24.111,VALID,112,VALID,0,
2010-01-04, 00:02:05,VALID,1000.03,VALID,0,VALID,91.1434,VALID,0,VALID,24.0897,VALID,105,VALID,0,
2010-01-04, 00:03:05,VALID,1000.02,VALID,0,VALID,91.1816,VALID,0,VALID,24.0915,VALID,105,VALID,0,
2010-01-04, 00:04:05,VALID,999.989,VALID,0,VALID,91.2197,VALID,0,VALID,24.072,VALID,105,VALID,0,
2010-01-04, 00:05:05,VALID,1000,VALID,0,VALID,91.2274,VALID,0,VALID,24.0311,VALID,105,VALID,0,
2010-01-04, 00:06:05,VALID,999.999,VALID,0,VALID,91.3037,VALID,0,VALID,24.0329,VALID,105,VALID,0,
2010-01-04, 00:07:05,VALID,999.993,VALID,0,VALID,91.4639,VALID,0,VALID,24.0116,VALID,105,VALID,0,
2010-01-04, 00:08:05,VALID,999.971,VALID,0,VALID,91.5783,VALID,0,VALID,24.0329,VALID,105,VALID,0,
2010-01-04, 00:09:05,VALID,999.967,VALID,0,VALID,91.5936,VALID,0,VALID,24.0116,VALID,105,VALID,0,
2010-01-04, 00:10:05,VALID,999.988,VALID,0,VALID,91.647,VALID,0,VALID,24.0116,VALID,105,VALID,0,
2010-01-04, 00:11:05,VALID,999.967,VALID,0,VALID,91.6851,VALID,0,VALID,24.0134,VALID,98,VALID,0,
2010-01-04, 00:12:05,VALID,999.937,VALID,0,VALID,91.708,VALID,0,VALID,24.0329,VALID,89,VALID,0,
2010-01-04, 00:13:05,VALID,999.908,VALID,0,VALID,91.8835,VALID,0,VALID,24.0525,VALID,89,VALID,0,
2010-01-04, 00:14:05,VALID,999.873,VALID,0,VALID,91.9522,VALID,0,VALID,24.0701,VALID,80,VALID,0.706641,
2010-01-04, 00:15:05,VALID,999.845,VALID,0,VALID,91.9293,VALID,0,VALID,24.111,VALID,67,VALID,0.749609,
2010-01-04, 00:16:05,VALID,999.846,VALID,0,VALID,91.8072,VALID,0,VALID,24.15,VALID,59,VALID,0.622656,
2010-01-04, 00:17:05,VALID,999.825,VALID,0,VALID,91.6928,VALID,0,VALID,24.1891,VALID,50,VALID,0.583203,
2010-01-04, 00:18:05,VALID,999.785,VALID,0,VALID,91.3494,VALID,0,VALID,24.1696,VALID,39,VALID,0.616797,
2010-01-04, 00:19:05,VALID,999.806,VALID,0,VALID,91.2808,VALID,0,VALID,24.15,VALID,35,VALID,0.692578,
2010-01-04, 00:20:05,VALID,999.793,VALID,0,VALID,91.296,VALID,0,VALID,24.1305,VALID,26,VALID,0.651953,
2010-01-04, 00:21:05,VALID,999.804,VALID,0,VALID,91.441,VALID,0,VALID,24.0915,VALID,26,VALID,0.5,
2010-01-04, 00:22:05,VALID,999.817,VALID,0,VALID,91.502,VALID,0,VALID,24.0915,VALID,26,VALID,0.357031,
2010-01-04, 00:23:05,VALID,999.796,VALID,0,VALID,91.5936,VALID,0,VALID,24.0915,VALID,26,VALID,0.223828,
2010-01-04, 00:24:05,VALID,999.774,VALID,0,VALID,91.6851,VALID,0,VALID,24.072,VALID,26,VALID,0.0410156,
2010-01-04, 00:25:05,VALID,999.779,VALID,0,VALID,91.7691,VALID,0,VALID,24.072,VALID,26,VALID,0,
2010-01-04, 00:26:05,VALID,999.73,VALID,0,VALID,91.853,VALID,0,VALID,24.0525,VALID,26,VALID,0,
2010-01-04, 00:27:05,VALID,999.724,VALID,0,VALID,91.8988,VALID,0,VALID,24.0506,VALID,26,VALID,0,
2010-01-04, 00:28:05,VALID,999.694,VALID,0,VALID,91.9217,VALID,0,VALID,24.0506,VALID,26,VALID,0,
2010-01-04, 00:29:05,VALID,999.703,VALID,0,VALID,92.0209,VALID,0,VALID,24.072,VALID,26,VALID,0,
2010-01-04, 00:30:05,VALID,999.701,VALID,0,VALID,92.0666,VALID,0,VALID,24.0506,VALID,56,VALID,0.491797,
2010-01-04, 00:31:05,VALID,999.676,VALID,0,VALID,92.0743,VALID,0,VALID,24.0915,VALID,62,VALID,0.650781,
2010-01-04, 00:32:05,VALID,999.64,VALID,0,VALID,91.9903,VALID,0.112286,VALID,24.0915,VALID,62,VALID,0.482812,
2010-01-04, 00:33:05,VALID,999.614,VALID,0,VALID,91.8988,VALID,0,VALID,24.0915,VALID,62,VALID,0.576563,
2010-01-04, 00:34:05,VALID,999.544,VALID,0,VALID,91.853,VALID,0,VALID,24.0915,VALID,62,VALID,0.512109,
2010-01-04, 00:35:05,VALID,999.551,VALID,0,VALID,91.7767,VALID,0,VALID,24.072,VALID,62,VALID,0.378516,
2010-01-04, 00:36:05,VALID,999.554,VALID,0,VALID,91.7691,VALID,0,VALID,24.072,VALID,62,VALID,0.263672,
2010-01-04, 00:37:05,VALID,999.537,VALID,0,VALID,91.8072,VALID,0,VALID,24.0525,VALID,62,VALID,0,
2010-01-04, 00:38:05,VALID,999.509,VALID,0,VALID,91.8454,VALID,0,VALID,24.0525,VALID,62,VALID,0,
2010-01-04, 00:39:05,VALID,999.521,VALID,0,VALID,91.8835,VALID,0,VALID,24.0134,VALID,62,VALID,0,
2010-01-04, 00:40:05,VALID,999.54,VALID,0,VALID,91.9064,VALID,0,VALID,24.0134,VALID,62,VALID,0,
2010-01-04, 00:41:05,VALID,999.529,VALID,0,VALID,91.9903,VALID,0,VALID,23.9744,VALID,62,VALID,0,
2010-01-04, 00:42:05,VALID,999.526,VALID,0,VALID,92.0437,VALID,0,VALID,23.9549,VALID,62,VALID,0,
2010-01-04, 00:43:05,VALID,999.495,VALID,0,VALID,92.1506,VALID,0,VALID,23.9549,VALID,62,VALID,0,
2010-01-04, 00:44:05,VALID,999.472,VALID,0,VALID,92.2268,VALID,0,VALID,23.9354,VALID,62,VALID,0,
2010-01-04, 00:45:05,VALID,999.482,VALID,0,VALID,92.2803,VALID,0,VALID,23.9159,VALID,62,VALID,0,
2010-01-04, 00:46:05,VALID,999.433,VALID,0,VALID,92.3718,VALID,0,VALID,23.8963,VALID,62,VALID,0,
2010-01-04, 00:47:05,VALID,999.415,VALID,0,VALID,92.4252,VALID,0,VALID,23.8945,VALID,62,VALID,0,
2010-01-04, 00:48:05,VALID,999.398,VALID,0,VALID,92.4252,VALID,0,VALID,23.8573,VALID,62,VALID,0,
2010-01-04, 00:49:05,VALID,999.382,VALID,0,VALID,92.4328,VALID,0,VALID,23.8378,VALID,62,VALID,0,
2010-01-04, 00:50:05,VALID,999.396,VALID,0,VALID,92.4863,VALID,0,VALID,23.8183,VALID,62,VALID,0,
2010-01-04, 00:51:05,VALID,999.391,VALID,0,VALID,92.5473,VALID,0,VALID,23.8183,VALID,62,VALID,0,
2010-01-04, 00:52:05,VALID,999.407,VALID,0,VALID,92.6083,VALID,0,VALID,23.7988,VALID,62,VALID,0,
2010-01-04, 00:53:05,VALID,999.408,VALID,0,VALID,92.6312,VALID,0,VALID,23.7793,VALID,62,VALID,0,
2010-01-04, 00:54:05,VALID,999.385,VALID,0,VALID,92.6923,VALID,0,VALID,23.7793,VALID,62,VALID,0,
2010-01-04, 00:55:05,VALID,999.387,VALID,0,VALID,92.7685,VALID,0,VALID,23.7988,VALID,62,VALID,0,
2010-01-04, 00:56:05,VALID,999.358,VALID,0,VALID,92.822,VALID,0,VALID,23.7988,VALID,62,VALID,0,
2010-01-04, 00:57:05,VALID,999.339,VALID,0,VALID,92.8448,VALID,0,VALID,23.7988,VALID,62,VALID,0,
2010-01-04, 00:58:05,VALID,999.313,VALID,0,VALID,92.8296,VALID,0,VALID,23.7579,VALID,62,VALID,0,
2010-01-04, 00:59:05,VALID,999.322,VALID,0,VALID,92.822,VALID,0,VALID,23.7597,VALID,62,VALID,0,
2010-01-04, 01:00:05,VALID,999.321,VALID,0,VALID,92.8296,VALID,0,VALID,23.7402,VALID,52,VALID,0,
2010-01-04, 01:01:05,VALID,999.314,VALID,0,VALID,92.8143,VALID,0,VALID,23.7207,VALID,41,VALID,0,
2010-01-04, 01:02:05,VALID,999.332,VALID,0,VALID,92.8525,VALID,0,VALID,23.6994,VALID,22,VALID,0,
2010-01-04, 01:03:05,VALID,999.329,VALID,0,VALID,92.9211,VALID,0,VALID,23.7207,VALID,22,VALID,0,
2010-01-04, 01:04:05,VALID,999.317,VALID,0,VALID,92.9517,VALID,0,VALID,23.7012,VALID,22,VALID,0,
2010-01-04, 01:05:05,VALID,999.318,VALID,0,VALID,92.9745,VALID,0,VALID,23.7207,VALID,22,VALID,0,
2010-01-04, 01:06:05,VALID,999.296,VALID,0,VALID,92.9822,VALID,0,VALID,23.6994,VALID,22,VALID,0,
2010-01-04, 01:07:05,VALID,999.281,VALID,0,VALID,92.9288,VALID,0,VALID,23.7012,VALID,22,VALID,0,
2010-01-04, 01:08:05,VALID,999.306,VALID,0,VALID,92.9364,VALID,0,VALID,23.6817,VALID,22,VALID,0,
2010-01-04, 01:09:05,VALID,999.328,VALID,0,VALID,92.9288,VALID,0,VALID,23.6622,VALID,22,VALID,0,
2010-01-04, 01:10:05,VALID,999.305,VALID,0,VALID,92.9669,VALID,0,VALID,23.6817,VALID,22,VALID,0,
2010-01-04, 01:11:05,VALID,999.298,VALID,0,VALID,93.0203,VALID,0,VALID,23.6817,VALID,22,VALID,0,
2010-01-04, 01:12:05,VALID,999.298,VALID,0,VALID,93.0661,VALID,0,VALID,23.7012,VALID,22,VALID,0,
2010-01-04, 01:13:05,VALID,999.31,VALID,0,VALID,93.028,VALID,0,VALID,23.7012,VALID,22,VALID,0,
2010-01-04, 01:14:05,VALID,999.274,VALID,0,VALID,93.0203,VALID,0,VALID,23.7012,VALID,22,VALID,0,
2010-01-04, 01:15:05,VALID,999.256,VALID,0,VALID,93.0508,VALID,0,VALID,23.7012,VALID,22,VALID,0,
2010-01-04, 01:16:05,VALID,999.229,VALID,0,VALID,93.0508,VALID,0,VALID,23.7012,VALID,22,VALID,0,
2010-01-04, 01:17:05,VALID,999.212,VALID,0,VALID,93.1043,VALID,0,VALID,23.7207,VALID,22,VALID,0,
2010-01-04, 01:18:05,VALID,999.195,VALID,0,VALID,93.1271,VALID,0,VALID,23.7402,VALID,22,VALID,0,
2010-01-04, 01:19:05,VALID,999.197,VALID,0,VALID,93.1195,VALID,0,VALID,23.7597,VALID,22,VALID,0,
2010-01-04, 01:20:05,VALID,999.197,VALID,0,VALID,93.0737,VALID,0,VALID,23.7402,VALID,22,VALID,0,
2010-01-04, 01:21:05,VALID,999.186,VALID,0,VALID,93.0737,VALID,0,VALID,23.7597,VALID,21,VALID,0,
2010-01-04, 01:22:05,VALID,999.186,VALID,0,VALID,92.9593,VALID,0,VALID,23.7207,VALID,19,VALID,0,
2010-01-04, 01:23:05,VALID,999.158,VALID,0,VALID,92.8677,VALID,0,VALID,23.6817,VALID,19,VALID,0,
2010-01-04, 01:24:05,VALID,999.182,VALID,0,VALID,92.7609,VALID,0,VALID,23.6427,VALID,20,VALID,0,
2010-01-04, 01:25:05,VALID,999.19,VALID,0,VALID,92.7075,VALID,0,VALID,23.6036,VALID,20,VALID,0,
2010-01-04, 01:26:05,VALID,999.166,VALID,0,VALID,92.7991,VALID,0,VALID,23.5628,VALID,22,VALID,0,
2010-01-04, 01:27:05,VALID,999.177,VALID,0,VALID,92.9288,VALID,0,VALID,23.5841,VALID,27,VALID,0,
2010-01-04, 01:28:05,VALID,999.154,VALID,0,VALID,93.028,VALID,0,VALID,23.6232,VALID,27,VALID,0,
2010-01-04, 01:29:05,VALID,999.167,VALID,0,VALID,93.0966,VALID,0,VALID,23.6427,VALID,27,VALID,0,
2010-01-04, 01:30:05,VALID,999.129,VALID,0,VALID,93.1195,VALID,0,VALID,23.6427,VALID,27,VALID,0,
2010-01-04, 01:31:05,VALID,999.124,VALID,0,VALID,93.0966,VALID,0,VALID,23.6622,VALID,27,VALID,0,
2010-01-04, 01:32:05,VALID,999.115,VALID,0,VALID,93.1043,VALID,0,VALID,23.6232,VALID,27,VALID,0,
2010-01-04, 01:33:05,VALID,999.097,VALID,0,VALID,93.0966,VALID,0,VALID,23.6214,VALID,27,VALID,0,
2010-01-04, 01:34:05,VALID,999.112,VALID,0,VALID,93.1119,VALID,0,VALID,23.6232,VALID,27,VALID,0,
2010-01-04, 01:35:05,VALID,999.104,VALID,0,VALID,93.1195,VALID,0,VALID,23.6232,VALID,27,VALID,0,
2010-01-04, 01:36:05,VALID,999.076,VALID,0,VALID,93.1653,VALID,0,VALID,23.6214,VALID,28,VALID,0,
2010-01-04, 01:37:05,VALID,999.072,VALID,0,VALID,93.15,VALID,0,VALID,23.6214,VALID,35,VALID,0,
2010-01-04, 01:38:05,VALID,999.068,VALID,0,VALID,93.089,VALID,0,VALID,23.6232,VALID,35,VALID,0,
2010-01-04, 01:39:05,VALID,999.044,VALID,0,VALID,93.0432,VALID,0,VALID,23.6036,VALID,35,VALID,0,
2010-01-04, 01:40:04,VALID,999.041,VALID,0,VALID,93.0203,VALID,0,VALID,23.5628,VALID,36,VALID,0,
2010-01-04, 01:41:04,VALID,998.987,VALID,0,VALID,93.0051,VALID,0,VALID,23.5841,VALID,36,VALID,0,
2010-01-04, 01:42:04,VALID,999.003,VALID,0,VALID,92.9898,VALID,0,VALID,23.5646,VALID,36,VALID,0,
2010-01-04, 01:43:04,VALID,998.999,VALID,0,VALID,92.9898,VALID,0,VALID,23.5451,VALID,36,VALID,0,
2010-01-04, 01:44:04,VALID,999,VALID,0,VALID,93.028,VALID,0,VALID,23.5646,VALID,36,VALID,0,
2010-01-04, 01:45:04,VALID,998.979,VALID,0,VALID,93.0508,VALID,0,VALID,23.5646,VALID,36,VALID,0,
2010-01-04, 01:46:04,VALID,998.976,VALID,0,VALID,93.0661,VALID,0,VALID,23.5646,VALID,36,VALID,0,
2010-01-04, 01:47:04,VALID,998.957,VALID,0,VALID,93.1271,VALID,0,VALID,23.5841,VALID,41,VALID,0,
2010-01-04, 01:48:04,VALID,998.942,VALID,0,VALID,93.1958,VALID,0,VALID,23.6019,VALID,41,VALID,0,
2010-01-04, 01:49:04,VALID,998.93,VALID,0,VALID,93.1577,VALID,0,VALID,23.6232,VALID,41,VALID,0,
2010-01-04, 01:50:04,VALID,998.928,VALID,0,VALID,93.1424,VALID,0,VALID,23.6036,VALID,53,VALID,0,
2010-01-04, 01:51:04,VALID,998.916,VALID,0,VALID,93.15,VALID,0,VALID,23.6232,VALID,54,VALID,0,
2010-01-04, 01:52:04,VALID,998.898,VALID,0,VALID,93.1271,VALID,0,VALID,23.6036,VALID,54,VALID,0,
2010-01-04, 01:53:04,VALID,998.917,VALID,0,VALID,93.1043,VALID,0,VALID,23.5841,VALID,54,VALID,0,
2010-01-04, 01:54:04,VALID,998.925,VALID,0,VALID,93.1271,VALID,0,VALID,23.5841,VALID,54,VALID,0,
2010-01-04, 01:55:04,VALID,998.919,VALID,0,VALID,93.1043,VALID,0,VALID,23.5841,VALID,54,VALID,0,
2010-01-04, 01:56:04,VALID,998.907,VALID,0,VALID,93.0508,VALID,0,VALID,23.5238,VALID,54,VALID,0,
2010-01-04, 01:57:04,VALID,998.919,VALID,0,VALID,93.0356,VALID,0,VALID,23.5256,VALID,54,VALID,0,
2010-01-04, 01:58:04,VALID,998.96,VALID,0,VALID,93.0508,VALID,0,VALID,23.5256,VALID,54,VALID,0,
2010-01-04, 01:59:04,VALID,998.933,VALID,0,VALID,93.1348,VALID,0,VALID,23.5256,VALID,54,VALID,0,
2010-01-04, 02:00:04,VALID,998.954,VALID,0,VALID,93.1882,VALID,0,VALID,23.5238,VALID,54,VALID,0,
2010-01-04, 02:01:04,VALID,998.949,VALID,0,VALID,93.2111,VALID,0,VALID,23.5646,VALID,54,VALID,0,
2010-01-04, 02:02:04,VALID,998.945,VALID,0,VALID,93.234,VALID,0,VALID,23.5646,VALID,54,VALID,0,
2010-01-04, 02:03:04,VALID,998.909,VALID,0,VALID,93.2645,VALID,0,VALID,23.5646,VALID,54,VALID,0,
2010-01-04, 02:04:04,VALID,998.894,VALID,0,VALID,93.2568,VALID,0,VALID,23.5238,VALID,54,VALID,0,
2010-01-04, 02:05:04,VALID,998.877,VALID,0,VALID,93.295,VALID,0,VALID,23.5646,VALID,54,VALID,0,
2010-01-04, 02:06:04,VALID,998.876,VALID,0,VALID,93.3484,VALID,0,VALID,23.5433,VALID,54,VALID,0,
2010-01-04, 02:07:04,VALID,998.872,VALID,0,VALID,93.3103,VALID,0,VALID,23.5433,VALID,54,VALID,0,
2010-01-04, 02:08:04,VALID,998.897,VALID,0,VALID,93.3484,VALID,0,VALID,23.5628,VALID,54,VALID,0,
2010-01-04, 02:09:04,VALID,998.848,VALID,0,VALID,93.3713,VALID,0,VALID,23.5646,VALID,54,VALID,0,
2010-01-04, 02:10:04,VALID,998.894,VALID,0,VALID,93.3713,VALID,0,VALID,23.5646,VALID,54,VALID,0,
2010-01-04, 02:11:04,VALID,998.844,VALID,0,VALID,93.3637,VALID,0,VALID,23.5646,VALID,54,VALID,0,
2010-01-04, 02:12:04,VALID,998.857,VALID,0,VALID,93.3942,VALID,0,VALID,23.5646,VALID,54,VALID,0,
2010-01-04, 02:13:04,VALID,998.87,VALID,0,VALID,93.3789,VALID,0,VALID,23.5646,VALID,54,VALID,0,
2010-01-04, 02:14:04,VALID,998.842,VALID,0,VALID,93.44,VALID,0,VALID,23.5841,VALID,57,VALID,0,
2010-01-04, 02:15:04,VALID,998.837,VALID,0,VALID,93.4857,VALID,0,VALID,23.6232,VALID,65,VALID,0,
2010-01-04, 02:16:04,VALID,998.807,VALID,0,VALID,93.4323,VALID,0,VALID,23.6232,VALID,65,VALID,0,
2010-01-04, 02:17:04,VALID,998.794,VALID,0,VALID,93.4171,VALID,0,VALID,23.5823,VALID,65,VALID,0,
2010-01-04, 02:18:04,VALID,998.766,VALID,0,VALID,93.4323,VALID,0,VALID,23.5841,VALID,65,VALID,0,
2010-01-04, 02:19:04,VALID,998.78,VALID,0,VALID,93.3942,VALID,0,VALID,23.5433,VALID,65,VALID,0,
2010-01-04, 02:20:04,VALID,998.767,VALID,0,VALID,93.3866,VALID,0,VALID,23.5841,VALID,65,VALID,0,
2010-01-04, 02:21:04,VALID,998.758,VALID,0,VALID,93.3637,VALID,0,VALID,23.5433,VALID,65,VALID,0,
2010-01-04, 02:22:04,VALID,998.726,VALID,0,VALID,93.3255,VALID,0,VALID,23.5451,VALID,65,VALID,0,
2010-01-04, 02:23:04,VALID,998.739,VALID,0,VALID,93.3484,VALID,0,VALID,23.5451,VALID,65,VALID,0,
2010-01-04, 02:24:04,VALID,998.717,VALID,0,VALID,93.3331,VALID,0,VALID,23.5256,VALID,65,VALID,0,
2010-01-04, 02:25:04,VALID,998.714,VALID,0,VALID,93.3103,VALID,0.112286,VALID,23.4848,VALID,65,VALID,0,
2010-01-04, 02:26:04,VALID,998.691,VALID,0,VALID,93.3408,VALID,0,VALID,23.5061,VALID,65,VALID,0,
2010-01-04, 02:27:04,VALID,998.688,VALID,0,VALID,93.3408,VALID,0,VALID,23.4653,VALID,65,VALID,0,
2010-01-04, 02:28:04,VALID,998.702,VALID,0,VALID,93.3026,VALID,0.112286,VALID,23.4458,VALID,65,VALID,0,
2010-01-04, 02:29:04,VALID,998.661,VALID,0,VALID,93.3179,VALID,0,VALID,23.4263,VALID,65,VALID,0,
2010-01-04, 02:30:04,VALID,998.645,VALID,0,VALID,93.3255,VALID,0,VALID,23.428,VALID,65,VALID,0,
2010-01-04, 02:31:04,VALID,998.656,VALID,0,VALID,93.3789,VALID,0,VALID,23.4263,VALID,65,VALID,0,
2010-01-04, 02:32:04,VALID,998.602,VALID,0,VALID,93.4247,VALID,0,VALID,23.4475,VALID,65,VALID,0,
2010-01-04, 02:33:04,VALID,998.59,VALID,0,VALID,93.4171,VALID,0,VALID,23.4475,VALID,65,VALID,0,
2010-01-04, 02:34:04,VALID,998.564,VALID,0,VALID,93.3713,VALID,0,VALID,23.428,VALID,65,VALID,0,
2010-01-04, 02:35:04,VALID,998.544,VALID,0,VALID,93.3713,VALID,0,VALID,23.3677,VALID,65,VALID,0,
2010-01-04, 02:36:04,VALID,998.5,VALID,0,VALID,93.4018,VALID,0,VALID,23.3482,VALID,65,VALID,0,
2010-01-04, 02:37:04,VALID,998.523,VALID,0,VALID,93.44,VALID,0,VALID,23.389,VALID,65,VALID,0,
2010-01-04, 02:38:04,VALID,998.536,VALID,0,VALID,93.3866,VALID,0,VALID,23.3695,VALID,65,VALID,0,
2010-01-04, 02:39:04,VALID,998.505,VALID,0,VALID,93.4018,VALID,0,VALID,23.3092,VALID,65,VALID,0,
2010-01-04, 02:40:04,VALID,998.509,VALID,0,VALID,93.4628,VALID,0,VALID,23.3305,VALID,65,VALID,0,
2010-01-04, 02:41:04,VALID,998.497,VALID,0,VALID,93.4857,VALID,0,VALID,23.3305,VALID,65,VALID,0,
2010-01-04, 02:42:04,VALID,998.475,VALID,0,VALID,93.4857,VALID,0,VALID,23.3305,VALID,65,VALID,0,
2010-01-04, 02:43:04,VALID,998.478,VALID,0,VALID,93.4781,VALID,0,VALID,23.3305,VALID,65,VALID,0,
2010-01-04, 02:44:04,VALID,998.468,VALID,0,VALID,93.501,VALID,0,VALID,23.2897,VALID,65,VALID,0,
2010-01-04, 02:45:04,VALID,998.479,VALID,0,VALID,93.4476,VALID,0,VALID,23.2915,VALID,65,VALID,0,
2010-01-04, 02:46:04,VALID,998.507,VALID,0,VALID,93.44,VALID,0,VALID,23.2312,VALID,65,VALID,0,
2010-01-04, 02:47:04,VALID,998.496,VALID,0,VALID,93.44,VALID,0,VALID,23.2117,VALID,65,VALID,0,
2010-01-04, 02:48:04,VALID,998.477,VALID,0,VALID,93.4934,VALID,0,VALID,23.2134,VALID,65,VALID,0,
2010-01-04, 02:49:04,VALID,998.499,VALID,0,VALID,93.5926,VALID,0,VALID,23.2524,VALID,65,VALID,0,
2010-01-04, 02:50:04,VALID,998.504,VALID,0,VALID,93.5697,VALID,0,VALID,23.2719,VALID,65,VALID,0,
2010-01-04, 02:51:04,VALID,998.486,VALID,0,VALID,93.5697,VALID,0,VALID,23.2312,VALID,65,VALID,0,
2010-01-04, 02:52:04,VALID,998.518,VALID,0,VALID,93.6002,VALID,0,VALID,23.2312,VALID,65,VALID,0,
2010-01-04, 02:53:04,VALID,998.494,VALID,0,VALID,93.5849,VALID,0,VALID,23.2524,VALID,65,VALID,0,
2010-01-04, 02:54:04,VALID,998.504,VALID,0,VALID,93.5926,VALID,0,VALID,23.2329,VALID,65,VALID,0,
2010-01-04, 02:55:04,VALID,998.508,VALID,0,VALID,93.646,VALID,0.112286,VALID,23.2719,VALID,65,VALID,0,
2010-01-04, 02:56:04,VALID,998.543,VALID,0,VALID,93.6307,VALID,0,VALID,23.2719,VALID,65,VALID,0,
2010-01-04, 02:57:04,VALID,998.52,VALID,0,VALID,93.6231,VALID,0,VALID,23.2312,VALID,65,VALID,0,
2010-01-04, 02:58:04,VALID,998.485,VALID,0,VALID,93.6994,VALID,0,VALID,23.2524,VALID,65,VALID,0,
2010-01-04, 02:59:04,VALID,998.524,VALID,0,VALID,93.7451,VALID,0,VALID,23.2915,VALID,65,VALID,0,
2010-01-04, 03:00:04,VALID,998.522,VALID,0,VALID,93.7528,VALID,0,VALID,23.3713,VALID,65,VALID,0,
2010-01-04, 03:01:04,VALID,998.54,VALID,0,VALID,93.8062,VALID,0,VALID,23.389,VALID,89,VALID,0,
2010-01-04, 03:02:04,VALID,998.516,VALID,0,VALID,93.7985,VALID,0,VALID,23.4085,VALID,89,VALID,0,
2010-01-04, 03:03:04,VALID,998.543,VALID,0,VALID,93.7604,VALID,0,VALID,23.4493,VALID,106,VALID,0,
2010-01-04, 03:04:04,VALID,998.522,VALID,0,VALID,93.7985,VALID,0,VALID,23.4688,VALID,107,VALID,0,
2010-01-04, 03:05:04,VALID,998.524,VALID,0,VALID,93.7833,VALID,0,VALID,23.4884,VALID,119,VALID,0,
2010-01-04, 03:06:04,VALID,998.551,VALID,0,VALID,93.7833,VALID,0,VALID,23.4866,VALID,119,VALID,0,
2010-01-04, 03:07:04,VALID,998.522,VALID,0,VALID,93.7451,VALID,0,VALID,23.5274,VALID,119,VALID,0,
2010-01-04, 03:08:04,VALID,998.528,VALID,0,VALID,93.6841,VALID,0,VALID,23.4866,VALID,119,VALID,0,
2010-01-04, 03:09:04,VALID,998.505,VALID,0,VALID,93.6612,VALID,0,VALID,23.5079,VALID,119,VALID,0,
2010-01-04, 03:10:04,VALID,998.505,VALID,0,VALID,93.6307,VALID,0,VALID,23.5061,VALID,118,VALID,0,
2010-01-04, 03:11:04,VALID,998.514,VALID,0,VALID,93.5544,VALID,0,VALID,23.4884,VALID,118,VALID,0,
2010-01-04, 03:12:04,VALID,998.521,VALID,0,VALID,93.5086,VALID,0,VALID,23.4493,VALID,118,VALID,0,
2010-01-04, 03:13:04,VALID,998.518,VALID,0,VALID,93.501,VALID,0,VALID,23.4671,VALID,85,VALID,0,
2010-01-04, 03:14:04,VALID,998.536,VALID,0,VALID,93.4781,VALID,0,VALID,23.4671,VALID,74,VALID,0,
2010-01-04, 03:15:04,VALID,998.543,VALID,0,VALID,93.4476,VALID,0,VALID,23.4475,VALID,74,VALID,0,
2010-01-04, 03:16:04,VALID,998.548,VALID,0,VALID,93.5315,VALID,0,VALID,23.4866,VALID,74,VALID,0,
2010-01-04, 03:17:04,VALID,998.518,VALID,0,VALID,93.5468,VALID,0,VALID,23.5061,VALID,74,VALID,0,
2010-01-04, 03:18:04,VALID,998.536,VALID,0,VALID,93.5315,VALID,0,VALID,23.5238,VALID,74,VALID,0,
2010-01-04, 03:19:04,VALID,998.504,VALID,0,VALID,93.5239,VALID,0,VALID,23.5451,VALID,74,VALID,0,
2010-01-04, 03:20:04,VALID,998.528,VALID,0,VALID,93.5239,VALID,0,VALID,23.5628,VALID,74,VALID,0,
2010-01-04, 03:21:04,VALID,998.543,VALID,0,VALID,93.4934,VALID,0,VALID,23.5823,VALID,74,VALID,0,
2010-01-04, 03:22:04,VALID,998.549,VALID,0,VALID,93.4628,VALID,0.112286,VALID,23.6036,VALID,74,VALID,0,
2010-01-04, 03:23:04,VALID,998.542,VALID,0,VALID,93.4323,VALID,0,VALID,23.6036,VALID,74,VALID,0,
2010-01-04, 03:24:04,VALID,998.57,VALID,0,VALID,93.4094,VALID,0,VALID,23.5841,VALID,74,VALID,0,
2010-01-04, 03:25:04,VALID,998.553,VALID,0,VALID,93.3713,VALID,0,VALID,23.5841,VALID,74,VALID,0,
2010-01-04, 03:26:04,VALID,998.551,VALID,0,VALID,93.356,VALID,0,VALID,23.5841,VALID,74,VALID,0,
2010-01-04, 03:27:04,VALID,998.57,VALID,0,VALID,93.3408,VALID,0,VALID,23.5841,VALID,74,VALID,0,
2010-01-04, 03:28:04,VALID,998.599,VALID,0,VALID,93.3331,VALID,0,VALID,23.6036,VALID,74,VALID,0,
2010-01-04, 03:29:04,VALID,998.58,VALID,0,VALID,93.3255,VALID,0,VALID,23.5823,VALID,74,VALID,0,
2010-01-04, 03:30:04,VALID,998.562,VALID,0,VALID,93.2874,VALID,0,VALID,23.5823,VALID,74,VALID,0,
2010-01-04, 03:31:04,VALID,998.57,VALID,0,VALID,93.295,VALID,0,VALID,23.5823,VALID,74,VALID,0,
2010-01-04, 03:32:04,VALID,998.583,VALID,0,VALID,93.295,VALID,0,VALID,23.6019,VALID,74,VALID,0,
2010-01-04, 03:33:04,VALID,998.563,VALID,0,VALID,93.295,VALID,0,VALID,23.6036,VALID,74,VALID,0,
2010-01-04, 03:34:04,VALID,998.596,VALID,0,VALID,93.3255,VALID,0,VALID,23.6019,VALID,74,VALID,0,
2010-01-04, 03:35:04,VALID,998.615,VALID,0,VALID,93.2797,VALID,0,VALID,23.5823,VALID,74,VALID,0,
2010-01-04, 03:36:04,VALID,998.609,VALID,0,VALID,93.2416,VALID,0,VALID,23.6036,VALID,74,VALID,0,
2010-01-04, 03:37:04,VALID,998.588,VALID,0,VALID,93.1958,VALID,0,VALID,23.5841,VALID,74,VALID,0,
2010-01-04, 03:38:04,VALID,998.612,VALID,0,VALID,93.1577,VALID,0,VALID,23.6036,VALID,74,VALID,0,
2010-01-04, 03:39:04,VALID,998.619,VALID,0,VALID,93.1577,VALID,0,VALID,23.5628,VALID,74,VALID,0,
2010-01-04, 03:40:04,VALID,998.628,VALID,0,VALID,93.0966,VALID,0.112286,VALID,23.5628,VALID,74,VALID,0,
2010-01-04, 03:41:04,VALID,998.644,VALID,0,VALID,93.0432,VALID,0,VALID,23.5646,VALID,74,VALID,0,
2010-01-04, 03:42:04,VALID,998.642,VALID,0,VALID,93.0203,VALID,0,VALID,23.5451,VALID,74,VALID,0,
2010-01-04, 03:43:04,VALID,998.648,VALID,0,VALID,92.9822,VALID,0,VALID,23.5256,VALID,74,VALID,0,
2010-01-04, 03:44:04,VALID,998.617,VALID,0,VALID,92.9822,VALID,0,VALID,23.5061,VALID,74,VALID,0,
2010-01-04, 03:45:04,VALID,998.614,VALID,0,VALID,92.9517,VALID,0,VALID,23.4866,VALID,74,VALID,0,
2010-01-04, 03:46:04,VALID,998.628,VALID,0,VALID,92.9364,VALID,0,VALID,23.4475,VALID,74,VALID,0,
2010-01-04, 03:47:04,VALID,998.617,VALID,0,VALID,92.9593,VALID,0,VALID,23.4475,VALID,74,VALID,0,
2010-01-04, 03:48:04,VALID,998.641,VALID,0,VALID,93.089,VALID,0,VALID,23.4263,VALID,74,VALID,0,
2010-01-04, 03:49:04,VALID,998.615,VALID,0,VALID,93.0203,VALID,0,VALID,23.4263,VALID,74,VALID,0,
2010-01-04, 03:50:04,VALID,998.6,VALID,0,VALID,93.1577,VALID,0,VALID,23.4458,VALID,74,VALID,0,
2010-01-04, 03:51:04,VALID,998.625,VALID,0,VALID,93.2187,VALID,0,VALID,23.5061,VALID,128,VALID,0,
2010-01-04, 03:52:04,VALID,998.612,VALID,0,VALID,93.3331,VALID,0,VALID,23.5646,VALID,128,VALID,0,
2010-01-04, 03:53:04,VALID,998.6,VALID,0,VALID,93.2721,VALID,0,VALID,23.5823,VALID,132,VALID,0,
2010-01-04, 03:54:04,VALID,998.595,VALID,0,VALID,93.1805,VALID,0,VALID,23.5841,VALID,132,VALID,0,
2010-01-04, 03:55:04,VALID,998.585,VALID,0,VALID,93.1195,VALID,0,VALID,23.6427,VALID,132,VALID,0,
2010-01-04, 03:56:04,VALID,998.612,VALID,0,VALID,93.0051,VALID,0,VALID,23.6427,VALID,132,VALID,0,
2010-01-04, 03:57:04,VALID,998.608,VALID,0,VALID,92.9517,VALID,0,VALID,23.6409,VALID,132,VALID,0,
2010-01-04, 03:58:04,VALID,998.603,VALID,0,VALID,92.8754,VALID,0,VALID,23.6409,VALID,132,VALID,0,
2010-01-04, 03:59:04,VALID,998.627,VALID,0,VALID,92.8372,VALID,0,VALID,23.6409,VALID,132,VALID,0,
2010-01-04, 04:00:04,VALID,998.607,VALID,0,VALID,92.8143,VALID,0,VALID,23.6604,VALID,132,VALID,0,